Regional Weather Roundup
Issued by NWS

Home | Current Version | Previous Version | Graphics & Text | Print | Product List | Glossary On
Versions: 1 2 3 4 5 6 7 8 9 10 11 12 13 14 15 16 17 18 19 20 21 22 23 24 25 26 27 28 29 30 31 32 33 34 35 36 37 38 39 40 41 42 43 44 45 46 47 48 49 50
000
ASUS43 KMPX 222301
RWRMN
WEATHER ROUNDUP FOR MINNESOTA
NATIONAL WEATHER SERVICE TWIN CITIES/CHANHASSEN MN
600 PM CDT TUE AUG 22 2017


NOTE: "FAIR" INDICATES FEW OR NO CLOUDS BELOW 12,000 FEET WITH NO
SIGNIFICANT WEATHER AND/OR OBSTRUCTIONS TO VISIBILITY. N/A MEANS
CURRENT SKY AND/OR WEATHER CONDITIONS ARE NOT AVAILABLE.

MNZ060>063-068>070-230000-
   Twin Cities Metro

CITY           SKY/WX    TMP DP  RH WIND       PRES   REMARKS
TWIN CITIES    MOSUNNY   73  45  36 NW17G26   30.04R
ST PAUL        MOSUNNY   72  46  39 NW15      30.03R
CRYSTAL        SUNNY     73  43  33 NW14G25   30.02S
BLAINE         MOSUNNY   73  45  35 NW17      30.03R
LAKEVILLE      SUNNY     70  48  46 NW10G17   30.05R
EDEN PRAIRIE   MOSUNNY   74  46  36 NW12G21   30.04R
SOUTH ST PAUL  MOSUNNY   73  43  34 NW14G20   30.03S
LAKE ELMO      FAIR      72  46  40 W12G23    30.04S
$$
MNZ001>005-007-008-013>017-022>024-027-028-230000-
   Northwest Minnesota

CITY           SKY/WX    TMP DP  RH WIND       PRES   REMARKS
BEMIDJI        CLOUDY    68  45  42 NW18G28   30.02S
HALLOCK        MOSUNNY   73  48  40 N13       30.04R
ROSEAU         MOSUNNY   68  55  64 NW12G18   30.03R
WARROAD        SUNNY     66  55  68 NW10      30.02R
CROOKSTON      SUNNY     73  43  33 N17G25    30.05S
FOSSTON        MOSUNNY   72  43  35 W17G24    30.05S
DETROIT LAKES  SUNNY     72  41  33 NW14      30.07S
MOORHEAD       SUNNY     73  43  33 NW13G21   30.07S
PARK RAPIDS    MOSUNNY   72  43  35 NW20G28   30.04R
MAHNOMEN       FAIR      70  43  37 NW20G25   30.05S
$$
MNZ006-009>011-018-025>026-230000-
   North Central Minnesota

CITY           SKY/WX    TMP DP  RH WIND       PRES   REMARKS
BAUDETTE       SUNNY     65  54  67 N12G21    30.00R
FLAG ISLAND    SUNNY     64  50  59 NW14      30.00R
INTL FALLS     MOSUNNY   66  50  56 N14G23    29.96R
WASKISH        PTSUNNY   63  55  77 NW10G18   30.00S
BIG FORK       SUNNY     66  54  63 NW7       29.99R
LONGVILLE      SUNNY     68  45  42 W9G22     30.01R
GRAND RAPIDS   CLOUDY    66  49  54 NW17G23   30.00S
CRANE LAKE     MOSUNNY   59  55  88 NW3       29.95R
ORR            CLOUDY    61  54  77 W9        29.93R
COOK           LGT RAIN  61  55  82 W10       29.96R
WALKER         FAIR      69  45  42 NW13G24   30.01S
$$
MNZ012-019>021-037-230000-
   Northeast Minnesota

CITY           SKY/WX    TMP DP  RH WIND       PRES   REMARKS
DULUTH         MOSUNNY   63  55  75 NW13      29.96F
ELY            RAIN      55  54  94 NW8       29.94R
HIBBING        MOSUNNY   64  52  64 NW18G29   29.96F
EVELETH        SUNNY     64  47  54 W10G18    29.96F
DULUTH HARBOR  SUNNY     68  55  64 W18       29.95F
TWO HARBORS    MOSUNNY   68  55  64 NW8G21    29.91S
GRAND MARAIS     N/A     60  54  80 VRB6      29.87R
$$
MNZ029>031-032-039>041-046>048-054>057-064-230000-
   West Central Minnesota

CITY           SKY/WX    TMP DP  RH WIND       PRES   REMARKS
FERGUS FALLS   SUNNY     70  46  43 NW12      30.07S
WHEATON        SUNNY     73  43  33 W13       30.11S
MORRIS         SUNNY     73  46  38 N14       30.08F
ALEXANDRIA     SUNNY     70  47  43 NW15G21   30.09S
ELBOW LAKE     FAIR      70  47  43 NW15G21   30.08F
WADENA         MOSUNNY   70  45  40 NW13G20   30.05S
GLENWOOD       SUNNY     72  45  37 NW18G26   30.09S
APPLETON       SUNNY     73  43  33 NW12      30.09F
BENSON         SUNNY     73  45  35 NW16      30.10F
ORTONVILLE     SUNNY     73  46  38 MISG      30.10F
MADISON        SUNNY     73  48  40 NW12      30.11S
WILLMAR        FAIR      72  46  40 NW14      30.10S
$$
MNZ033>034-036-042>043-049>051-058-059-230000-
   Central Minnesota

CITY           SKY/WX    TMP DP  RH WIND       PRES   REMARKS
ST CLOUD       SUNNY     72  47  40 NW14G24   30.04S
SAUK CENTRE    FAIR      72  46  40 W10G17    30.07S
PAYNESVILLE    MOSUNNY   71  46  40 NW12G20   30.08S
AITKIN         SUNNY     70  48  46 NW7       30.00R
PINE RIVER     MOSUNNY   68  45  42 NW7G18    30.05S
BRAINERD       MOSUNNY   71  42  35 NW15      30.02S
STAPLES        MOSUNNY   72  39  30 NW18G24   30.04S
LONG PRAIRIE   FAIR      70  45  40 W13G20    30.06F
LITTLE FALLS   MOSUNNY   72  41  33 W16G22    30.04S
LITCHFIELD     SUNNY     73  48  40 NW12G17   30.08S
BUFFALO        MOSUNNY   71  45  39 W10G20    30.06S
MAPLE LAKE     MOSUNNY   72  51  47 W12G20    30.07R
HUTCHINSON     SUNNY     72  49  45 NW14      30.09S
$$
MNZ037-044-045-052-053-230000-
   East Central Minnesota

CITY           SKY/WX    TMP DP  RH WIND       PRES   REMARKS
PRINCETON      SUNNY     73  48  40 W9G20     30.03S
MORA           MOSUNNY   68  46  45 NW8       30.03S
CAMBRIDGE      SUNNY     73  52  46 W12G17    30.02S
RUSH CITY      MOSUNNY   71  47  43 NW8       30.01F HAZE
MOOSE LAKE     CLOUDY    68  46  45 NW12G18   29.97S
HINCKLEY       FAIR      70  50  49 W5        30.00S
CLOQUET        PTSUNNY   66  46  48 W12       29.97S
MCGREGOR       PTSUNNY   70  45  40 NW14G26   30.00S
$$
MNZ071>073-080-081-089-090-097-098-230000-
   Southwest Minnesota

CITY           SKY/WX    TMP DP  RH WIND       PRES   REMARKS
MONTEVIDEO     SUNNY     75  48  38 N9        30.11S
GRANITE FALLS  SUNNY     73  50  43 NW12      30.11F
CANBY          SUNNY     74  49  40 CALM      30.13S
MARSHALL       MOSUNNY   71  51  49 NW9       30.11F
REDWOOD FALLS  SUNNY     73  47  39 NW12      30.09S
OLIVIA         MOSUNNY   72  50  46 NW12G18   30.09S
PIPESTONE      SUNNY     72  43  35 N8G16     30.14F
WINDOM         SUNNY     72  48  43 NW12G17   30.12S
WORTHINGTON    SUNNY     71  48  43 NW12      30.14S
JACKSON        SUNNY     70  46  43 NW13G21   30.12F
TRACY          SUNNY     72  52  50 NW9G16    30.12F
SLAYTON        SUNNY     71  44  38 NW12G17   30.14F
$$
MNZ065>067-074>077-082>085-091>093-230000-
   South Central Minnesota

CITY           SKY/WX    TMP DP  RH WIND       PRES   REMARKS
MANKATO        MOSUNNY   71  50  47 NW14      30.08S
NEW ULM        SUNNY     72  48  43 NW15      30.09S
ST JAMES       SUNNY     72  48  43 NW12G21   30.11S
FAIRMONT       SUNNY     72  49  44 NW15G22   30.11S
GLENCOE        SUNNY     72  52  48 W12G18    30.07S
FARIBAULT      SUNNY     72  48  43 W16       30.07S
OWATONNA       SUNNY     70  52  52 NW13G22   30.07S
WASECA         SUNNY     70  46  43 NW13G21   30.09S
ALBERT LEA     SUNNY     72  50  46 NW10G18   30.08S
$$
MNZ078>079-086>088-094>096-230000-
   Southeast Minnesota

CITY           SKY/WX    TMP DP  RH WIND       PRES   REMARKS
ROCHESTER      MOSUNNY   68  50  52 NW15G24   30.06R
RED WING       SUNNY     73  43  33 NW12G17   30.01S
STANTON        SUNNY     72  50  46 NW17      30.03S
DODGE CENTER   PTSUNNY   70  46  43 NW13G22   30.06S
WINONA         SUNNY     73  50  43 NW10      30.01S
AUSTIN         MOSUNNY   72  46  40 NW17G24   30.07S
PRESTON        MOSUNNY   69  49  47 NW17      30.06S
$$
ABBREVIATIONS USED IN REMARKS
   TC - TEMPERATURES IN CELSIUS
  WCI - WIND CHILL INDEX
   HX - HEAT INDEX
  VSB - VISIBILITY
$$




USA.gov is the U.S. government's official web portal to all federal, state and local government web resources and services.